RAISE-4 (67073 NORAD) Tracking and Keplerian Element Data

This shows tracking and keplerian element data for the satellite.

Feedback or suggestion? Click here.




ElementValue
Catalog67073
NameRAISE-4
Epoch Orbit77
Epoch Day353.27188687
Epoch Year2025
RAAN140.6452
Inclination97.4853
Eccentricity0.0011417
Argument of Perigee296.9674
Mean Anonmoly63.0387
Mean Motion15.07177511
Decay Rate3.306E-05
L11 67073U 25297B 25353.27188687 .00003306 00000+0 22354-3 0 9993
L22 67073 97.4853 140.6452 0011417 296.9674 63.0387 15.07177511 776



Live tracking and technical data element details for RAISE-4 (NORAD 67073). RAISE-4 can be tracked NOW for your location showing map with azimuth and elevation plus other details from your city location.







IsCatalogInMostPopularTable: catalog: 67073, numindb: 23
Update: records affected: 1



GetName: 67073 RAISE-4

Hit Count: updated at: Fri, 16 Jan 2026 10:15:50 GMT